CW0454 Weather Reports


Display with metric or nautical units.
time (UTC)temp
F
wind
direction
speed
MPH
gust
MPH
rain 1hr
in
rain 24hr
in
rain mn
in
humidity
%
barometer
mb
20260504140402 62 138 1.0 8.0 0.00 0.00 0.00 54 1013.5
20260504130402 58 137 1.0 7.0 0.00 0.00 0.00 59 1013.8
20260504110402 51 130 2.0 6.0 0.00 0.00 0.00 72 1014.4
20260504100402 48 118 2.0 6.0 0.00 0.00 0.00 79 1014.4
20260504081402 49 128 0.0 2.0 0.00 0.00 0.00 75 1014.7
20260504080403 49 128 0.0 4.0 0.00 0.00 0.00 74 1014.8
20260504050359 46 185 0.0 4.0 0.00 0.00 0.00 74 1014.8
20260504045420 46 116 1.0 7.0 0.00 0.00 0.00 75 1014.9
20260504044359 45 122 2.0 6.0 0.00 0.00 0.00 76 1015.1
20260504043359 45 138 0.0 4.0 0.00 0.00 0.00 76 1015.0
20260504042359 45 163 1.0 4.0 0.00 0.00 0.00 77 1015.0
20260504041420 45 124 0.0 3.0 0.00 0.00 0.00 78 1015.0
20260504040358 45 125 0.0 2.0 0.00 0.00 0.00 78 1014.9
20260504035359 45 125 0.0 3.0 0.00 0.00 0.00 77 1014.9
20260504034359 45 126 0.0 3.0 0.00 0.00 0.00 76 1014.7
20260504033420 45 165 0.0 4.0 0.00 0.00 0.00 76 1014.6
20260504032359 45 212 1.0 2.0 0.00 0.00 0.00 75 1014.4
20260504031359 45 213 0.0 1.0 0.00 0.00 0.00 75 1014.4
20260504030420 45 212 0.0 2.0 0.00 0.00 0.00 74 1014.4
20260504025359 45 212 0.0 1.0 0.00 0.00 0.00 75 1014.4
20260504024359 45 212 1.0 2.0 0.00 0.00 0.00 73 1014.4
20260504023359 46 212 0.0 1.0 0.00 0.00 0.00 72 1014.3
20260504022359 46 213 0.0 2.0 0.00 0.00 0.00 72 1014.4
20260504021359 46 212 0.0 2.0 0.00 0.00 0.00 70 1014.2
20260504020421 47 212 0.0 1.0 0.00 0.00 0.00 70 1014.1
20260504015400 47 212 1.0 2.0 0.00 0.00 0.00 69 1014.1
20260504014359 47 212 0.0 2.0 0.00 0.00 0.00 67 1014.1
20260504013400 48 212 1.0 2.0 0.00 0.00 0.00 66 1014.1
20260504012359 48 213 0.0 1.0 0.00 0.00 0.00 66 1014.1
20260504011420 49 212 0.0 2.0 0.00 0.00 0.00 62 1014.0
20260504010400 50 212 0.0 2.0 0.00 0.00 0.00 62 1014.0
20260504005359 50 212 0.0 2.0 0.00 0.00 0.00 60 1014.0
20260504004421 51 212 1.0 1.0 0.00 0.00 0.00 56 1013.9
20260504003359 52 212 1.0 2.0 0.00 0.00 0.00 53 1013.7
20260504001359 54 213 0.0 1.0 0.00 0.00 0.00 48 1013.5
20260504000401 56 213 0.0 0.0 0.00 0.00 0.00 46 1013.4
20260503235420 57 213 0.0 0.0 0.00 0.00 0.00 43 1013.2
20260503234421 58 213 0.0 4.0 0.00 0.00 0.00 42 1013.1
20260503233400 59 212 1.0 4.0 0.00 0.00 0.00 40 1013.1
20260503232400 60 250 1.0 4.0 0.00 0.00 0.00 39 1013.1
20260503231400 61 256 3.0 11.0 0.00 0.00 0.00 36 1013.0
20260503230400 61 273 2.0 10.0 0.00 0.00 0.00 36 1013.0
20260503225359 61 245 3.0 15.0 0.00 0.00 0.00 35 1013.0
20260503224400 62 225 4.0 9.0 0.00 0.00 0.00 34 1013.1
20260503223400 62 250 5.0 12.0 0.00 0.00 0.00 35 1013.1
20260503222400 62 313 2.0 12.0 0.00 0.00 0.00 35 1013.0
20260503221400 62 260 4.0 11.0 0.00 0.00 0.00 34 1013.0
20260503220442 63 285 4.0 14.0 0.00 0.00 0.00 34 1013.1
20260503215400 64 263 7.0 15.0 0.00 0.00 0.00 32 1013.1
20260503214400 64 247 5.0 11.0 0.00 0.00 0.00 32 1013.0
20260503213400 64 225 7.0 16.0 0.00 0.00 0.00 33 1013.0
20260503212400 64 213 6.0 13.0 0.00 0.00 0.00 34 1012.9
20260503211401 64 260 5.0 14.0 0.00 0.00 0.00 34 1012.9
20260503210400 64 213 4.0 12.0 0.00 0.00 0.00 34 1013.0
20260503205401 64 346 2.0 12.0 0.00 0.00 0.00 36 1012.9
20260503204401 64 267 5.0 13.0 0.00 0.00 0.00 33 1013.1
20260503203421 64 259 3.0 13.0 0.00 0.00 0.00 34 1013.2
20260503202401 63 268 2.0 14.0 0.00 0.00 0.00 37 1013.4
20260503201400 63 247 4.0 12.0 0.00 0.00 0.00 37 1013.4
20260503200421 62 259 4.0 13.0 0.00 0.00 0.00 37 1013.7
20260503195401 62 248 4.0 18.0 0.00 0.00 0.00 36 1013.8
20260503194400 63 264 6.0 13.0 0.00 0.00 0.00 37 1013.7
20260503193400 62 221 4.0 16.0 0.00 0.00 0.00 36 1014.0
20260503192401 63 238 5.0 17.0 0.00 0.00 0.00 37 1013.9
20260503191421 62 252 5.0 15.0 0.00 0.00 0.00 39 1014.1
20260503190400 61 205 4.0 18.0 0.00 0.00 0.00 40 1014.4
20260503185400 61 271 3.0 14.0 0.00 0.00 0.00 39 1014.4
20260503184401 60 257 3.0 11.0 0.00 0.00 0.00 42 1014.5
20260503183422 60 244 2.0 15.0 0.00 0.00 0.00 41 1014.7
20260503182400 60 333 3.0 11.0 0.00 0.00 0.00 38 1014.6
20260503181400 60 238 5.0 14.0 0.00 0.00 0.00 39 1014.8
20260503180422 60 265 7.0 17.0 0.00 0.00 0.00 40 1014.9
20260503175402 59 272 3.0 14.0 0.00 0.00 0.00 40 1014.9
20260503174400 58 266 6.0 15.0 0.00 0.00 0.00 41 1015.0
20260503173401 59 292 5.0 13.0 0.00 0.00 0.00 39 1015.0
20260503172400 58 217 4.0 12.0 0.00 0.00 0.00 41 1015.0
20260503171401 58 224 2.0 12.0 0.00 0.00 0.00 42 1015.2
20260503170401 57 236 5.0 14.0 0.00 0.00 0.00 41 1015.4
20260503150401 53 274 5.0 14.0 0.00 0.00 0.00 47 1015.8